GLO1782 SBBR-SBEG

Flight info

Callsign GLO1782
Flight time 2h 34m
Altitude 36000
Route UGUGA UM409 ESMAR DCT IRUMO
Aircraft B738/M-SDFGIKLORWXY/LB1

Departure

Time 2026-04-26 21:03
Airport Presidente Juscelino Kubitschek International Airport (SBBR)

Arrival

Time 2026-04-26 23:38
Airport Eduardo Gomes International Airport (SBEG)
Time Latitude Longitude Altitude Speed Heading
2026-04-26 20:15 -15.86707 -47.91844 3470 ft 0 kts 176°
2026-04-26 20:51 -15.86690 -47.91845 3468 ft 4 kts 176°
2026-04-26 20:51 -15.86663 -47.91847 3470 ft 4 kts 172°
2026-04-26 20:52 -15.86638 -47.91853 3469 ft 4 kts 147°
2026-04-26 20:52 -15.86621 -47.91869 3468 ft 4 kts 116°
2026-04-26 20:52 -15.86616 -47.91895 3469 ft 4 kts 85°
2026-04-26 20:52 -15.86618 -47.91909 3470 ft 0 kts 86°
2026-04-26 20:55 -15.86617 -47.91899 3470 ft 3 kts 86°
2026-04-26 20:56 -15.86615 -47.91858 3470 ft 8 kts 86°
2026-04-26 20:56 -15.86574 -47.91812 3469 ft 12 kts
2026-04-26 20:56 -15.86491 -47.91786 3466 ft 15 kts 69°
2026-04-26 20:56 -15.86481 -47.91672 3465 ft 16 kts 86°
2026-04-26 20:57 -15.86473 -47.91546 3463 ft 18 kts 86°
2026-04-26 20:57 -15.86464 -47.91414 3465 ft 18 kts 86°
2026-04-26 20:57 -15.86456 -47.91285 3468 ft 18 kts 86°
2026-04-26 20:57 -15.86447 -47.91148 3468 ft 21 kts 86°
2026-04-26 20:58 -15.86437 -47.90983 3472 ft 24 kts 86°
2026-04-26 20:58 -15.86426 -47.90816 3482 ft 23 kts 86°
2026-04-26 20:58 -15.86416 -47.90654 3484 ft 22 kts 86°
2026-04-26 20:58 -15.86405 -47.90496 3486 ft 22 kts 86°
2026-04-26 20:59 -15.86396 -47.90343 3492 ft 21 kts 86°
2026-04-26 20:59 -15.86387 -47.90193 3489 ft 21 kts 86°
2026-04-26 20:59 -15.86376 -47.90032 3486 ft 23 kts 86°
2026-04-26 20:59 -15.86365 -47.89865 3486 ft 23 kts 86°
2026-04-26 21:00 -15.86331 -47.89744 3486 ft 14 kts 21°
2026-04-26 21:00 -15.86263 -47.89746 3488 ft 0 kts 356°
2026-04-26 21:01 -15.86262 -47.89746 3488 ft 1 kts 356°
2026-04-26 21:02 -15.86244 -47.89748 3503 ft 5 kts 352°
2026-04-26 21:02 -15.86192 -47.89780 3484 ft 13 kts 311°
2026-04-26 21:02 -15.86174 -47.89924 3485 ft 38 kts 266°
2026-04-26 21:02 -15.86208 -47.90443 3488 ft 105 kts 266°
2026-04-26 21:03 -15.86270 -47.91421 3463 ft 164 kts 266°
2026-04-26 21:03 -15.86345 -47.92763 3600 ft 201 kts 266°
2026-04-26 21:03 -15.86238 -47.94259 4245 ft 213 kts 279°
2026-04-26 21:03 -15.85945 -47.95793 4769 ft 218 kts 280°
2026-04-26 21:04 -15.85630 -47.97303 5531 ft 211 kts 281°
2026-04-26 21:04 -15.85304 -47.98802 6069 ft 218 kts 281°
2026-04-26 21:04 -15.84958 -48.00424 6247 ft 242 kts 281°
2026-04-26 21:04 -15.84904 -48.02246 6426 ft 266 kts 257°
2026-04-26 21:05 -15.85326 -48.04172 6857 ft 280 kts 256°
2026-04-26 21:05 -15.85620 -48.06159 7461 ft 286 kts 274°
2026-04-26 21:05 -15.84949 -48.08091 8163 ft 287 kts 308°
2026-04-26 21:05 -15.83514 -48.09520 8970 ft 285 kts 322°
2026-04-26 21:06 -15.81955 -48.10806 9732 ft 287 kts 323°
2026-04-26 21:06 -15.80364 -48.12078 10362 ft 293 kts 323°
2026-04-26 21:06 -15.78678 -48.13418 10492 ft 318 kts 323°
2026-04-26 21:06 -15.76871 -48.14861 10669 ft 338 kts 323°
2026-04-26 21:07 -15.75003 -48.16361 11091 ft 348 kts 323°
2026-04-26 21:07 -15.73079 -48.17914 11691 ft 351 kts 322°
2026-04-26 21:07 -15.71147 -48.19479 12361 ft 354 kts 322°
2026-04-26 21:07 -15.69197 -48.21063 12952 ft 359 kts 322°
2026-04-26 21:08 -15.67214 -48.22675 13533 ft 364 kts 322°
2026-04-26 21:08 -15.65215 -48.24301 14126 ft 366 kts 322°
2026-04-26 21:08 -15.63206 -48.25937 14739 ft 368 kts 322°
2026-04-26 21:08 -15.61181 -48.27584 15295 ft 372 kts 322°
2026-04-26 21:09 -15.59142 -48.29244 15902 ft 374 kts 322°
2026-04-26 21:09 -15.57092 -48.30912 16504 ft 376 kts 322°
2026-04-26 21:09 -15.55029 -48.32589 17091 ft 378 kts 322°
2026-04-26 21:09 -15.52948 -48.34282 17656 ft 381 kts 322°
2026-04-26 21:10 -15.50854 -48.35984 18208 ft 384 kts 322°
2026-04-26 21:10 -15.48745 -48.37699 18673 ft 387 kts 322°
2026-04-26 21:10 -15.46644 -48.39406 19109 ft 390 kts 322°
2026-04-26 21:10 -15.44473 -48.41169 19565 ft 393 kts 322°
2026-04-26 21:11 -15.42338 -48.42903 19926 ft 397 kts 322°
2026-04-26 21:11 -15.40160 -48.44671 19948 ft 398 kts 322°
2026-04-26 21:11 -15.37982 -48.46439 19948 ft 398 kts 322°
2026-04-26 21:11 -15.35802 -48.48208 19957 ft 397 kts 322°
2026-04-26 21:12 -15.33630 -48.49971 19952 ft 396 kts 322°
2026-04-26 21:12 -15.31452 -48.51737 20020 ft 401 kts 322°
2026-04-26 21:12 -15.29240 -48.53529 20467 ft 403 kts 322°
2026-04-26 21:12 -15.27034 -48.55318 21038 ft 402 kts 322°
2026-04-26 21:13 -15.24826 -48.57107 21502 ft 405 kts 322°
2026-04-26 21:13 -15.22597 -48.58913 21909 ft 409 kts 322°
2026-04-26 21:13 -15.20346 -48.60736 22321 ft 412 kts 323°
2026-04-26 21:13 -15.18082 -48.62569 22746 ft 415 kts 323°
2026-04-26 21:14 -15.15828 -48.64393 23164 ft 418 kts 323°
2026-04-26 21:14 -15.13529 -48.66253 23561 ft 420 kts 323°
2026-04-26 21:14 -15.11222 -48.68120 23932 ft 422 kts 323°
2026-04-26 21:14 -15.08899 -48.69998 24290 ft 425 kts 323°
2026-04-26 21:15 -15.06563 -48.71887 24658 ft 426 kts 323°
2026-04-26 21:15 -15.04219 -48.73782 25023 ft 428 kts 323°
2026-04-26 21:15 -15.01869 -48.75681 25381 ft 430 kts 323°
2026-04-26 21:15 -14.99507 -48.77588 25733 ft 432 kts 323°
2026-04-26 21:16 -14.97133 -48.79506 26092 ft 434 kts 323°
2026-04-26 21:16 -14.94750 -48.81430 26446 ft 435 kts 323°
2026-04-26 21:16 -14.92356 -48.83362 26792 ft 437 kts 323°
2026-04-26 21:16 -14.89952 -48.85302 27132 ft 439 kts 323°
2026-04-26 21:17 -14.87536 -48.87251 27452 ft 442 kts 324°
2026-04-26 21:17 -14.85107 -48.89209 27759 ft 444 kts 324°
2026-04-26 21:17 -14.82694 -48.91154 28086 ft 446 kts 324°
2026-04-26 21:17 -14.80249 -48.93125 28413 ft 448 kts 324°
2026-04-26 21:18 -14.77755 -48.95134 28740 ft 449 kts 324°
2026-04-26 21:18 -14.75282 -48.97126 29048 ft 451 kts 324°
2026-04-26 21:18 -14.72805 -48.99121 29350 ft 453 kts 324°
2026-04-26 21:18 -14.70313 -49.01127 29647 ft 455 kts 324°
2026-04-26 21:19 -14.67813 -49.03139 29952 ft 456 kts 324°
2026-04-26 21:19 -14.65337 -49.05131 30192 ft 458 kts 324°
2026-04-26 21:19 -14.62809 -49.07164 30401 ft 461 kts 324°
2026-04-26 21:19 -14.60275 -49.09202 30676 ft 461 kts 324°
2026-04-26 21:20 -14.57749 -49.11233 31091 ft 458 kts 324°
2026-04-26 21:20 -14.56082 -49.12573 31391 ft 455 kts 324°
2026-04-26 21:20 -14.52753 -49.15249 31917 ft 453 kts 324°
2026-04-26 21:20 -14.51108 -49.16570 32131 ft 452 kts 323°
2026-04-26 21:21 -14.48626 -49.18563 32457 ft 452 kts 323°
2026-04-26 21:21 -14.46139 -49.20559 32815 ft 451 kts 323°
2026-04-26 21:21 -14.43670 -49.22540 33195 ft 449 kts 323°
2026-04-26 21:21 -14.41209 -49.24514 33560 ft 447 kts 323°
2026-04-26 21:22 -14.38756 -49.26482 33866 ft 447 kts 323°
2026-04-26 21:22 -14.36303 -49.28448 34162 ft 446 kts 323°
2026-04-26 21:22 -14.33854 -49.30411 34445 ft 445 kts 323°
2026-04-26 21:23 -14.28969 -49.34326 34977 ft 444 kts 323°
2026-04-26 21:23 -14.26530 -49.36279 35225 ft 444 kts 323°
2026-04-26 21:23 -14.24089 -49.38233 35468 ft 444 kts 322°
2026-04-26 21:23 -14.21679 -49.40162 35715 ft 443 kts 322°
2026-04-26 21:24 -14.19245 -49.42110 35905 ft 444 kts 322°
2026-04-26 21:24 -14.16793 -49.44072 35886 ft 448 kts 322°
2026-04-26 21:24 -14.11862 -49.48016 35891 ft 447 kts 322°
2026-04-26 21:25 -14.06980 -49.51919 35888 ft 441 kts 322°
2026-04-26 21:25 -14.02149 -49.55805 35893 ft 440 kts 321°
2026-04-26 21:26 -13.97495 -49.59903 35891 ft 440 kts 319°
2026-04-26 21:26 -13.92903 -49.64066 35890 ft 440 kts 319°
2026-04-26 21:27 -13.88298 -49.68214 35892 ft 440 kts 319°
2026-04-26 21:27 -13.83691 -49.72334 35889 ft 441 kts 319°
2026-04-26 21:28 -13.79046 -49.76475 35894 ft 442 kts 319°
2026-04-26 21:28 -13.74382 -49.80629 35889 ft 443 kts 319°
2026-04-26 21:29 -13.69711 -49.84788 35890 ft 445 kts 319°
2026-04-26 21:29 -13.65059 -49.88929 35889 ft 445 kts 319°
2026-04-26 21:30 -13.60372 -49.93099 35893 ft 446 kts 319°
2026-04-26 21:30 -13.55666 -49.97283 35891 ft 446 kts 319°
2026-04-26 21:31 -13.50968 -50.01458 35893 ft 446 kts 319°
2026-04-26 21:31 -13.46269 -50.05631 35894 ft 446 kts 319°
2026-04-26 21:32 -13.41573 -50.09800 35895 ft 445 kts 319°
2026-04-26 21:32 -13.36913 -50.13935 35891 ft 445 kts 319°
2026-04-26 21:33 -13.32227 -50.18090 35896 ft 444 kts 319°
2026-04-26 21:33 -13.27546 -50.22239 35897 ft 444 kts 319°
2026-04-26 21:34 -13.22877 -50.26377 35896 ft 443 kts 319°
2026-04-26 21:34 -13.18239 -50.30482 35900 ft 443 kts 319°
2026-04-26 21:35 -13.13573 -50.34612 35894 ft 442 kts 319°
2026-04-26 21:35 -13.08909 -50.38738 35895 ft 442 kts 319°
2026-04-26 21:36 -13.04253 -50.42857 35897 ft 442 kts 319°
2026-04-26 21:36 -12.99631 -50.46943 35897 ft 442 kts 319°
2026-04-26 21:37 -12.94976 -50.51058 35898 ft 442 kts 319°
2026-04-26 21:37 -12.90314 -50.55175 35892 ft 442 kts 319°
2026-04-26 21:38 -12.85651 -50.59291 35904 ft 442 kts 319°
2026-04-26 21:38 -12.81030 -50.63369 35899 ft 442 kts 320°
2026-04-26 21:39 -12.76365 -50.67483 35892 ft 442 kts 319°
2026-04-26 21:39 -12.71701 -50.71594 35900 ft 442 kts 319°
2026-04-26 21:40 -12.67024 -50.75716 35897 ft 443 kts 319°
2026-04-26 21:40 -12.62346 -50.79835 35899 ft 443 kts 320°
2026-04-26 21:41 -12.57672 -50.83949 35898 ft 443 kts 319°
2026-04-26 21:41 -12.52992 -50.88066 35903 ft 443 kts 320°
2026-04-26 21:42 -12.48336 -50.92160 35896 ft 444 kts 320°
2026-04-26 21:42 -12.43645 -50.96283 35900 ft 444 kts 320°
2026-04-26 21:43 -12.38952 -51.00405 35903 ft 444 kts 320°
2026-04-26 21:43 -12.34260 -51.04526 35902 ft 444 kts 320°
2026-04-26 21:44 -12.29568 -51.08644 35902 ft 445 kts 320°
2026-04-26 21:44 -12.24874 -51.12763 35902 ft 445 kts 320°
2026-04-26 21:45 -12.20171 -51.16886 35905 ft 445 kts 320°
2026-04-26 21:45 -12.15465 -51.21010 35908 ft 445 kts 320°
2026-04-26 21:46 -12.10754 -51.25139 35907 ft 446 kts 320°
2026-04-26 21:46 -12.06071 -51.29242 35907 ft 446 kts 320°
2026-04-26 21:47 -12.01356 -51.33371 35908 ft 446 kts 320°
2026-04-26 21:47 -11.96643 -51.37497 35911 ft 446 kts 320°
2026-04-26 21:48 -11.91926 -51.41624 35909 ft 446 kts 320°
2026-04-26 21:48 -11.87215 -51.45744 35909 ft 446 kts 320°
2026-04-26 21:49 -11.82503 -51.49863 35910 ft 445 kts 320°
2026-04-26 21:49 -11.77819 -51.53956 35912 ft 445 kts 320°
2026-04-26 21:50 -11.73907 -51.57373 35912 ft 445 kts 320°
2026-04-26 21:50 -11.68403 -51.62177 35908 ft 445 kts 320°
2026-04-26 21:51 -11.63700 -51.66281 35909 ft 444 kts 320°
2026-04-26 21:51 -11.59031 -51.70353 35909 ft 444 kts 320°
2026-04-26 21:52 -11.54335 -51.74446 35909 ft 444 kts 320°
2026-04-26 21:52 -11.49629 -51.78547 35910 ft 444 kts 320°
2026-04-26 21:53 -11.44929 -51.82641 35907 ft 444 kts 320°
2026-04-26 21:53 -11.40227 -51.86734 35911 ft 445 kts 320°
2026-04-26 21:54 -11.35519 -51.90832 35910 ft 445 kts 320°
2026-04-26 21:54 -11.30807 -51.94931 35910 ft 445 kts 320°
2026-04-26 21:55 -11.26076 -51.99027 35908 ft 446 kts 321°
2026-04-26 21:55 -11.21333 -52.03047 35915 ft 446 kts 321°
2026-04-26 21:56 -11.16547 -52.07088 35909 ft 447 kts 321°
2026-04-26 21:56 -11.11752 -52.11145 35914 ft 448 kts 321°
2026-04-26 21:57 -11.06962 -52.15202 35910 ft 448 kts 321°
2026-04-26 21:57 -11.02167 -52.19263 35908 ft 448 kts 321°
2026-04-26 21:58 -10.97367 -52.23328 35910 ft 448 kts 321°
2026-04-26 21:58 -10.92576 -52.27383 35910 ft 448 kts 321°
2026-04-26 21:59 -10.87811 -52.31414 35907 ft 448 kts 321°
2026-04-26 21:59 -10.83014 -52.35469 35913 ft 448 kts 321°
2026-04-26 22:00 -10.78221 -52.39520 35915 ft 447 kts 321°
2026-04-26 22:00 -10.73428 -52.43569 35915 ft 447 kts 321°
2026-04-26 22:01 -10.68675 -52.47583 35913 ft 447 kts 321°
2026-04-26 22:01 -10.63881 -52.51630 35912 ft 447 kts 321°
2026-04-26 22:02 -10.59907 -52.54982 35911 ft 447 kts 321°
2026-04-26 22:02 -10.54310 -52.59703 35912 ft 447 kts 321°
2026-04-26 22:03 -10.49555 -52.63712 35912 ft 446 kts 321°
2026-04-26 22:03 -10.44773 -52.67741 35912 ft 446 kts 321°
2026-04-26 22:04 -10.39987 -52.71773 35913 ft 447 kts 321°
2026-04-26 22:04 -10.35197 -52.75806 35914 ft 447 kts 321°
2026-04-26 22:05 -10.30407 -52.79838 35912 ft 447 kts 321°
2026-04-26 22:05 -10.25610 -52.83873 35913 ft 448 kts 321°
2026-04-26 22:06 -10.20808 -52.87912 35913 ft 448 kts 321°
2026-04-26 22:06 -10.16035 -52.91924 35913 ft 448 kts 321°
2026-04-26 22:07 -10.11232 -52.95960 35912 ft 448 kts 321°
2026-04-26 22:07 -10.07196 -52.99351 35912 ft 449 kts 321°
2026-04-26 22:08 -10.01614 -53.04038 35910 ft 449 kts 321°
2026-04-26 22:08 -9.97609 -53.07401 35913 ft 449 kts 321°
2026-04-26 22:09 -9.92799 -53.11438 35917 ft 449 kts 321°
2026-04-26 22:09 -9.88079 -53.15532 35914 ft 449 kts 319°
2026-04-26 22:10 -9.83469 -53.19865 35911 ft 449 kts 318°
2026-04-26 22:10 -9.78906 -53.24175 35913 ft 448 kts 318°
2026-04-26 22:11 -9.74345 -53.28442 35916 ft 448 kts 318°
2026-04-26 22:11 -9.69749 -53.32722 35913 ft 448 kts 318°
2026-04-26 22:12 -9.65191 -53.36964 35913 ft 447 kts 318°
2026-04-26 22:12 -9.60606 -53.41231 35912 ft 447 kts 318°
2026-04-26 22:13 -9.56025 -53.45494 35912 ft 447 kts 318°
2026-04-26 22:13 -9.51444 -53.49749 35913 ft 446 kts 319°
2026-04-26 22:14 -9.46859 -53.53996 35912 ft 446 kts 319°
2026-04-26 22:14 -9.42279 -53.58237 35913 ft 446 kts 319°
2026-04-26 22:15 -9.37726 -53.62455 35912 ft 446 kts 319°
2026-04-26 22:15 -9.33131 -53.66710 35913 ft 446 kts 319°
2026-04-26 22:16 -9.28548 -53.70953 35912 ft 446 kts 319°
2026-04-26 22:16 -9.23986 -53.75174 35911 ft 447 kts 319°
2026-04-26 22:17 -9.19392 -53.79424 35912 ft 447 kts 319°
2026-04-26 22:17 -9.14802 -53.83669 35912 ft 447 kts 319°
2026-04-26 22:18 -9.10240 -53.87887 35909 ft 447 kts 319°
2026-04-26 22:18 -9.05643 -53.92134 35910 ft 447 kts 319°
2026-04-26 22:19 -9.01052 -53.96375 35912 ft 447 kts 319°
2026-04-26 22:19 -8.96455 -54.00620 35911 ft 447 kts 319°
2026-04-26 22:20 -8.91854 -54.04867 35912 ft 447 kts 319°
2026-04-26 22:20 -8.87258 -54.09108 35911 ft 447 kts 319°
2026-04-26 22:21 -8.82658 -54.13351 35916 ft 447 kts 319°
2026-04-26 22:21 -8.78059 -54.17592 35915 ft 447 kts 319°
2026-04-26 22:22 -8.73462 -54.21829 35919 ft 447 kts 319°
2026-04-26 22:22 -8.68891 -54.26041 35914 ft 447 kts 319°
2026-04-26 22:23 -8.64291 -54.30279 35915 ft 447 kts 319°
2026-04-26 22:23 -8.59686 -54.34518 35908 ft 448 kts 319°
2026-04-26 22:24 -8.55078 -54.38760 35916 ft 448 kts 319°
2026-04-26 22:24 -8.50495 -54.42977 35915 ft 448 kts 319°
2026-04-26 22:25 -8.45873 -54.47229 35910 ft 449 kts 319°
2026-04-26 22:25 -8.41248 -54.51482 35905 ft 450 kts 319°
2026-04-26 22:26 -8.36614 -54.55741 35914 ft 450 kts 319°
2026-04-26 22:26 -8.32011 -54.59972 35912 ft 451 kts 319°
2026-04-26 22:27 -8.27363 -54.64241 35911 ft 451 kts 319°
2026-04-26 22:27 -8.22715 -54.68510 35909 ft 452 kts 319°
2026-04-26 22:28 -8.18064 -54.72780 35914 ft 452 kts 319°
2026-04-26 22:28 -8.13405 -54.77055 35911 ft 452 kts 319°
2026-04-26 22:29 -8.08779 -54.81300 35909 ft 452 kts 319°
2026-04-26 22:29 -8.04123 -54.85570 35907 ft 451 kts 319°
2026-04-26 22:30 -7.99472 -54.89834 35910 ft 451 kts 319°
2026-04-26 22:30 -7.94828 -54.94090 35909 ft 451 kts 319°
2026-04-26 22:31 -7.90190 -54.98340 35907 ft 450 kts 319°
2026-04-26 22:31 -7.85582 -55.02560 35906 ft 450 kts 319°
2026-04-26 22:32 -7.80942 -55.06809 35907 ft 450 kts 319°
2026-04-26 22:32 -7.76313 -55.11047 35904 ft 450 kts 319°
2026-04-26 22:33 -7.69351 -55.17417 35908 ft 450 kts 319°
2026-04-26 22:34 -7.64737 -55.21638 35907 ft 450 kts 319°
2026-04-26 22:34 -7.60097 -55.25881 35910 ft 450 kts 319°
2026-04-26 22:35 -7.55448 -55.30131 35913 ft 450 kts 319°
2026-04-26 22:35 -7.50802 -55.34377 35910 ft 451 kts 319°
2026-04-26 22:36 -7.46155 -55.38624 35911 ft 451 kts 319°
2026-04-26 22:36 -7.41528 -55.42851 35914 ft 451 kts 319°
2026-04-26 22:37 -7.36876 -55.47113 35912 ft 451 kts 319°
2026-04-26 22:37 -7.32236 -55.51382 35912 ft 452 kts 319°
2026-04-26 22:38 -7.27588 -55.55648 35912 ft 451 kts 319°
2026-04-26 22:38 -7.22845 -55.59784 35914 ft 451 kts 321°
2026-04-26 22:39 -7.18051 -55.63868 35910 ft 451 kts 321°
2026-04-26 22:39 -7.13297 -55.67932 35910 ft 451 kts 321°
2026-04-26 22:40 -7.08521 -55.72037 35911 ft 451 kts 321°
2026-04-26 22:40 -7.03749 -55.76148 35914 ft 451 kts 321°
2026-04-26 22:41 -6.98978 -55.80256 35912 ft 451 kts 321°
2026-04-26 22:41 -6.95821 -55.82974 35913 ft 451 kts 321°
2026-04-26 22:42 -6.84778 -55.92477 35917 ft 450 kts 321°
2026-04-26 22:43 -6.80009 -55.96577 35915 ft 451 kts 321°
2026-04-26 22:43 -6.75276 -56.00648 35921 ft 451 kts 321°
2026-04-26 22:44 -6.70502 -56.04751 35917 ft 451 kts 321°
2026-04-26 22:44 -6.65734 -56.08848 35919 ft 451 kts 321°
2026-04-26 22:45 -6.60959 -56.12951 35917 ft 451 kts 321°
2026-04-26 22:45 -6.56184 -56.17052 35917 ft 451 kts 321°
2026-04-26 22:46 -6.51416 -56.21146 35919 ft 451 kts 321°
2026-04-26 22:46 -6.46637 -56.25248 35919 ft 451 kts 321°
2026-04-26 22:47 -6.41891 -56.29322 35920 ft 451 kts 321°
2026-04-26 22:47 -6.37120 -56.33415 35917 ft 451 kts 321°
2026-04-26 22:48 -6.32344 -56.37512 35918 ft 451 kts 321°
2026-04-26 22:48 -6.27569 -56.41607 35918 ft 451 kts 321°
2026-04-26 22:49 -6.22799 -56.45696 35920 ft 450 kts 321°
2026-04-26 22:49 -6.18027 -56.49787 35918 ft 450 kts 321°
2026-04-26 22:50 -6.13294 -56.53843 35918 ft 450 kts 321°
2026-04-26 22:50 -6.08522 -56.57931 35914 ft 450 kts 321°
2026-04-26 22:51 -6.03759 -56.62012 35914 ft 450 kts 321°
2026-04-26 22:51 -5.98996 -56.66090 35918 ft 449 kts 321°
2026-04-26 22:52 -5.94267 -56.70139 35911 ft 449 kts 321°
2026-04-26 22:52 -5.89508 -56.74213 35910 ft 449 kts 321°
2026-04-26 22:53 -5.84757 -56.78280 35914 ft 449 kts 321°
2026-04-26 22:53 -5.80001 -56.82350 35915 ft 448 kts 321°
2026-04-26 22:54 -5.75384 -56.86569 35908 ft 450 kts 312°
2026-04-26 22:54 -5.71988 -56.91801 35924 ft 452 kts 300°
2026-04-26 22:55 -5.69077 -56.97413 35911 ft 453 kts 299°
2026-04-26 22:55 -5.66163 -57.03039 35916 ft 454 kts 299°
2026-04-26 22:56 -5.63220 -57.08639 35918 ft 454 kts 300°
2026-04-26 22:56 -5.60248 -57.14249 35917 ft 455 kts 299°
2026-04-26 22:57 -5.57271 -57.19858 35911 ft 455 kts 299°
2026-04-26 22:57 -5.54292 -57.25467 35918 ft 455 kts 299°
2026-04-26 22:58 -5.51333 -57.31041 35918 ft 455 kts 299°
2026-04-26 22:58 -5.48353 -57.36653 35917 ft 456 kts 299°
2026-04-26 22:59 -5.45370 -57.42270 35919 ft 455 kts 299°
2026-04-26 22:59 -5.42386 -57.47888 35918 ft 456 kts 299°
2026-04-26 23:00 -5.39401 -57.53504 35922 ft 456 kts 299°
2026-04-26 23:00 -5.36415 -57.59121 35928 ft 457 kts 299°
2026-04-26 23:01 -5.33439 -57.64720 35924 ft 457 kts 299°
2026-04-26 23:01 -5.30440 -57.70358 35921 ft 458 kts 299°
2026-04-26 23:02 -5.27442 -57.75995 35924 ft 458 kts 299°
2026-04-26 23:02 -5.24435 -57.81645 35922 ft 459 kts 299°
2026-04-26 23:03 -5.21429 -57.87294 35918 ft 459 kts 299°
2026-04-26 23:03 -5.18421 -57.92942 35921 ft 459 kts 299°
2026-04-26 23:04 -5.15409 -57.98599 35913 ft 459 kts 300°
2026-04-26 23:04 -5.12396 -58.04256 35919 ft 460 kts 300°
2026-04-26 23:05 -5.09888 -58.08962 35918 ft 460 kts 300°
2026-04-26 23:05 -5.06873 -58.14620 35916 ft 460 kts 300°
2026-04-26 23:06 -5.03364 -58.21203 35911 ft 460 kts 300°
2026-04-26 23:06 -5.00833 -58.25948 35913 ft 460 kts 300°
2026-04-26 23:07 -4.97813 -58.31611 35916 ft 460 kts 300°
2026-04-26 23:07 -4.94813 -58.37236 35914 ft 460 kts 300°
2026-04-26 23:08 -4.91791 -58.42899 35917 ft 460 kts 300°
2026-04-26 23:08 -4.88764 -58.48571 35919 ft 460 kts 300°
2026-04-26 23:09 -4.85740 -58.54235 35910 ft 460 kts 300°
2026-04-26 23:09 -4.82739 -58.59855 35916 ft 460 kts 300°
2026-04-26 23:10 -4.79718 -58.65510 35911 ft 460 kts 300°
2026-04-26 23:10 -4.76697 -58.71166 35914 ft 459 kts 300°
2026-04-26 23:11 -4.73677 -58.76817 35914 ft 459 kts 300°
2026-04-26 23:11 -4.70660 -58.82461 35916 ft 459 kts 300°
2026-04-26 23:12 -4.67641 -58.88108 35911 ft 459 kts 300°
2026-04-26 23:12 -4.64623 -58.93752 35912 ft 459 kts 300°
2026-04-26 23:13 -4.61604 -58.99397 35913 ft 459 kts 300°
2026-04-26 23:13 -4.58603 -59.05005 35912 ft 459 kts 300°
2026-04-26 23:14 -4.55584 -59.10647 35908 ft 459 kts 300°
2026-04-26 23:14 -4.52550 -59.16314 35351 ft 466 kts 300°
2026-04-26 23:14 -4.51018 -59.19175 34794 ft 466 kts 300°
2026-04-26 23:15 -4.49485 -59.22039 34164 ft 468 kts 300°
2026-04-26 23:15 -4.47938 -59.24927 33412 ft 472 kts 300°
2026-04-26 23:15 -4.46383 -59.27831 32689 ft 474 kts 300°
2026-04-26 23:15 -4.44825 -59.30740 32081 ft 473 kts 300°
2026-04-26 23:16 -4.43277 -59.33633 31575 ft 470 kts 300°
2026-04-26 23:16 -4.41735 -59.36512 31068 ft 467 kts 300°
2026-04-26 23:16 -4.40203 -59.39373 30547 ft 465 kts 300°
2026-04-26 23:16 -4.38677 -59.42220 30041 ft 462 kts 300°
2026-04-26 23:17 -4.37159 -59.45053 29463 ft 460 kts 300°
2026-04-26 23:17 -4.35654 -59.47861 28909 ft 456 kts 300°
2026-04-26 23:17 -4.34161 -59.50647 28393 ft 452 kts 300°
2026-04-26 23:17 -4.32678 -59.53415 27872 ft 448 kts 300°
2026-04-26 23:18 -4.31229 -59.56117 27369 ft 444 kts 300°
2026-04-26 23:18 -4.29772 -59.58834 26868 ft 440 kts 300°
2026-04-26 23:18 -4.28327 -59.61529 26374 ft 437 kts 300°
2026-04-26 23:18 -4.26893 -59.64203 25878 ft 434 kts 300°
2026-04-26 23:19 -4.25466 -59.66862 25371 ft 432 kts 300°
2026-04-26 23:19 -4.24047 -59.69507 24862 ft 430 kts 300°
2026-04-26 23:19 -4.22637 -59.72136 24362 ft 428 kts 300°
2026-04-26 23:19 -4.21230 -59.74758 23859 ft 426 kts 300°
2026-04-26 23:20 -4.19830 -59.77369 23323 ft 424 kts 300°
2026-04-26 23:20 -4.18438 -59.79962 22756 ft 422 kts 300°
2026-04-26 23:20 -4.17054 -59.82544 22237 ft 418 kts 300°
2026-04-26 23:20 -4.15683 -59.85098 21740 ft 414 kts 300°
2026-04-26 23:21 -4.14327 -59.87625 21264 ft 410 kts 300°
2026-04-26 23:21 -4.12982 -59.90129 20787 ft 406 kts 300°
2026-04-26 23:21 -4.11436 -59.92422 20290 ft 401 kts 316°
2026-04-26 23:21 -4.09218 -59.94044 19848 ft 392 kts 336°
2026-04-26 23:22 -4.06663 -59.94926 19350 ft 386 kts 351°
2026-04-26 23:22 -4.04007 -59.95073 18886 ft 380 kts
2026-04-26 23:22 -4.01377 -59.94870 18400 ft 378 kts
2026-04-26 23:22 -3.98760 -59.94614 17882 ft 376 kts
2026-04-26 23:23 -3.96164 -59.94351 17385 ft 373 kts
2026-04-26 23:23 -3.93588 -59.94097 16905 ft 370 kts
2026-04-26 23:23 -3.91069 -59.93859 16448 ft 367 kts
2026-04-26 23:23 -3.88538 -59.93628 15991 ft 364 kts
2026-04-26 23:24 -3.86022 -59.93404 15536 ft 361 kts
2026-04-26 23:24 -3.83527 -59.93184 15088 ft 359 kts
2026-04-26 23:24 -3.81049 -59.92967 14628 ft 357 kts
2026-04-26 23:24 -3.78580 -59.92752 14167 ft 355 kts
2026-04-26 23:25 -3.76123 -59.92537 13712 ft 354 kts
2026-04-26 23:25 -3.73674 -59.92324 13219 ft 352 kts
2026-04-26 23:25 -3.71243 -59.92112 12761 ft 349 kts
2026-04-26 23:25 -3.68863 -59.91905 12315 ft 346 kts
2026-04-26 23:26 -3.66471 -59.91696 11876 ft 343 kts
2026-04-26 23:26 -3.64095 -59.91489 11439 ft 341 kts
2026-04-26 23:26 -3.61740 -59.91283 11006 ft 338 kts
2026-04-26 23:26 -3.59401 -59.91079 10567 ft 336 kts
2026-04-26 23:27 -3.57094 -59.90879 10358 ft 326 kts
2026-04-26 23:27 -3.54896 -59.90688 10179 ft 307 kts
2026-04-26 23:27 -3.52831 -59.90509 10044 ft 292 kts
2026-04-26 23:27 -3.50837 -59.90335 9926 ft 283 kts
2026-04-26 23:28 -3.48879 -59.90164 9622 ft 282 kts
2026-04-26 23:28 -3.46956 -59.89995 9317 ft 280 kts
2026-04-26 23:28 -3.45018 -59.89825 9005 ft 279 kts
2026-04-26 23:28 -3.43092 -59.89657 8696 ft 278 kts
2026-04-26 23:29 -3.41170 -59.89490 8385 ft 277 kts
2026-04-26 23:29 -3.39252 -59.89322 8076 ft 276 kts
2026-04-26 23:29 -3.37346 -59.89156 7808 ft 274 kts
2026-04-26 23:29 -3.35432 -59.88989 7577 ft 277 kts
2026-04-26 23:30 -3.33501 -59.88821 7341 ft 280 kts
2026-04-26 23:30 -3.31553 -59.88651 7096 ft 280 kts
2026-04-26 23:30 -3.29617 -59.88482 6848 ft 278 kts
2026-04-26 23:30 -3.27696 -59.88315 6611 ft 276 kts
2026-04-26 23:31 -3.25793 -59.88149 6375 ft 274 kts
2026-04-26 23:31 -3.23902 -59.87984 6128 ft 272 kts
2026-04-26 23:31 -3.22015 -59.87820 5891 ft 270 kts
2026-04-26 23:31 -3.20146 -59.87657 5655 ft 269 kts
2026-04-26 23:32 -3.18290 -59.87495 5432 ft 267 kts
2026-04-26 23:32 -3.16448 -59.87335 5280 ft 265 kts
2026-04-26 23:32 -3.14596 -59.87173 5077 ft 268 kts
2026-04-26 23:32 -3.12718 -59.87069 4701 ft 270 kts
2026-04-26 23:33 -3.10856 -59.87072 4304 ft 265 kts
2026-04-26 23:33 -3.09056 -59.87083 3918 ft 260 kts
2026-04-26 23:33 -3.07291 -59.87093 3527 ft 245 kts 358°
2026-04-26 23:33 -3.05717 -59.87523 3191 ft 230 kts 328°
2026-04-26 23:34 -3.04631 -59.88589 2936 ft 211 kts 305°
2026-04-26 23:34 -3.04028 -59.89870 2708 ft 198 kts 287°
2026-04-26 23:34 -3.03884 -59.91188 2537 ft 185 kts 272°
2026-04-26 23:34 -3.03880 -59.92438 2353 ft 176 kts 272°
2026-04-26 23:35 -3.03879 -59.93627 2215 ft 167 kts 272°
2026-04-26 23:35 -3.03878 -59.94773 2009 ft 163 kts 272°
2026-04-26 23:35 -3.03877 -59.95887 1860 ft 156 kts 272°
2026-04-26 23:35 -3.03875 -59.96975 1633 ft 157 kts 272°
2026-04-26 23:36 -3.03874 -59.98055 1399 ft 153 kts 272°
2026-04-26 23:36 -3.03872 -59.99112 1195 ft 152 kts 272°
2026-04-26 23:36 -3.03869 -60.00168 1028 ft 153 kts 271°
2026-04-26 23:36 -3.03869 -60.01239 828 ft 154 kts 271°
2026-04-26 23:37 -3.03875 -60.02304 606 ft 151 kts 272°
2026-04-26 23:37 -3.03865 -60.03336 374 ft 147 kts 271°
2026-04-26 23:37 -3.03863 -60.04320 271 ft 135 kts 272°
2026-04-26 23:37 -3.03861 -60.05116 268 ft 93 kts 270°
2026-04-26 23:38 -3.03859 -60.05612 269 ft 50 kts 269°
2026-04-26 23:38 -3.03858 -60.05831 269 ft 23 kts 271°
2026-04-26 23:38 -3.03857 -60.05988 270 ft 22 kts 270°
2026-04-26 23:38 -3.03854 -60.06141 270 ft 20 kts 286°
2026-04-26 23:39 -3.03747 -60.06166 269 ft 17 kts 19°
2026-04-26 23:39 -3.03690 -60.06076 269 ft 16 kts 91°
2026-04-26 23:39 -3.03691 -60.05966 269 ft 16 kts 90°
2026-04-26 23:39 -3.03691 -60.05860 269 ft 15 kts 90°
2026-04-26 23:40 -3.03691 -60.05748 269 ft 17 kts 90°
2026-04-26 23:40 -3.03691 -60.05631 269 ft 17 kts 90°
2026-04-26 23:40 -3.03691 -60.05518 269 ft 16 kts 89°
2026-04-26 23:40 -3.03681 -60.05410 269 ft 15 kts 82°
2026-04-26 23:41 -3.03662 -60.05308 269 ft 15 kts 78°
2026-04-26 23:41 -3.03636 -60.05213 269 ft 14 kts 74°
2026-04-26 23:41 -3.03612 -60.05120 269 ft 13 kts 75°
2026-04-26 23:41 -3.03588 -60.05032 269 ft 13 kts 72°
2026-04-26 23:42 -3.03549 -60.04953 269 ft 13 kts 55°
2026-04-26 23:42 -3.03424 -60.04840 269 ft 12 kts 47°
2026-04-26 23:42 -3.03375 -60.04775 269 ft 11 kts 62°
2026-04-26 23:43 -3.03353 -60.04701 269 ft 11 kts 86°
2026-04-26 23:43 -3.03356 -60.04625 269 ft 11 kts 92°
2026-04-26 23:43 -3.03337 -60.04573 269 ft 8 kts 14°
2026-04-26 23:43 -3.03295 -60.04580 269 ft 2 kts 357°
2026-04-26 23:44 -3.03280 -60.04581 269 ft 2 kts 357°
2026-04-26 23:44 -3.03272 -60.04581 269 ft 0 kts 357°